GW5294 Weather Reports


Display with metric or nautical units.
time (UTC)temp
F
wind
direction
speed
MPH
gust
MPH
rain 1hr
in
rain 24hr
in
rain mn
in
humidity
%
barometer
mb
20260510081258 67 14 0.0 0.0 0.00 0.00 0.00 99 1012.3
20260510080754 67 31 0.0 0.0 0.00 0.00 0.00 99 1012.1
20260510080249 67 85 0.0 0.0 0.00 0.00 0.00 99 1012.0
20260510075746 67 85 0.0 0.0 0.00 0.00 0.00 99 1012.1
20260510075244 67 77 0.0 0.0 0.00 0.00 0.00 99 1012.3
20260510074741 67 68 0.0 0.0 0.00 0.00 0.00 99 1012.3
20260510074237 67 81 0.0 0.0 0.00 0.00 0.00 99 1012.4
20260510073733 67 81 0.0 0.0 0.00 0.00 0.00 99 1012.4
20260510073230 67 54 0.0 0.0 0.00 0.00 0.00 99 1012.3
20260510072725 67 57 0.0 0.0 0.00 0.00 0.00 99 1012.3
20260510072222 67 40 0.0 0.0 0.00 0.00 0.00 99 1012.1
20260510071719 67 89 0.0 0.0 0.00 0.00 0.00 99 1012.2
20260510071215 67 82 0.0 0.0 0.00 0.00 0.00 99 1012.1
20260510070714 67 69 0.0 0.0 0.00 0.00 0.00 99 1012.1
20260510070211 67 56 0.0 0.0 0.00 0.00 0.00 99 1012.2
20260510065705 67 72 0.0 0.0 0.00 0.00 0.00 99 1011.9
20260510065202 67 359 0.0 1.0 0.00 0.00 0.00 99 1012.2
20260510064658 67 80 0.0 0.0 0.00 0.00 0.00 99 1012.1
20260510064156 67 119 0.0 0.0 0.00 0.00 0.00 99 1012.2
20260510063653 67 82 0.0 1.0 0.00 0.00 0.00 99 1012.3
20260510063149 67 88 0.0 0.0 0.00 0.00 0.00 99 1012.3
20260510062646 67 69 0.0 0.0 0.00 0.00 0.00 99 1012.0
20260510062142 67 89 0.0 1.0 0.00 0.00 0.00 99 1012.2
20260510061637 67 98 0.0 0.0 0.00 0.00 0.00 99 1011.9
20260510061135 68 95 0.0 0.0 0.00 0.00 0.00 99 1012.1
20260510060631 68 93 1.0 2.0 0.00 0.00 0.00 99 1012.2
20260510060127 68 84 0.0 1.0 0.00 0.00 0.00 99 1012.2
20260510055625 67 103 0.0 0.0 0.00 0.00 0.00 99 1012.3
20260510055123 67 89 0.0 1.0 0.00 0.00 0.00 99 1012.3
20260510054617 67 88 0.0 0.0 0.00 0.00 0.00 99 1012.2
20260510054113 67 84 0.0 0.0 0.00 0.00 0.00 99 1012.3
20260510053613 67 13 1.0 1.0 0.00 0.00 0.00 99 1012.5
20260510053110 67 54 0.0 0.0 0.00 0.00 0.00 99 1012.3
20260510052605 67 79 0.0 0.0 0.00 0.00 0.00 99 1012.0
20260510052102 68 93 0.0 0.0 0.00 0.00 0.00 99 1012.2
20260510051557 68 39 0.0 0.0 0.00 0.00 0.00 99 1012.3
20260510051055 68 52 0.0 0.0 0.00 0.00 0.00 99 1012.2
20260510050552 68 26 2.0 2.0 0.00 0.00 0.00 99 1012.4
20260510050049 68 24 0.0 1.0 0.00 0.00 0.00 99 1012.6
20260510045546 68 66 0.0 0.0 0.00 1.85 1.85 99 1012.6
20260510045042 68 21 0.0 0.0 0.00 1.85 1.85 99 1012.7
20260510044538 68 14 0.0 1.0 0.00 1.85 1.85 99 1012.8
20260510044036 68 63 0.0 0.0 0.00 1.85 1.85 99 1012.6
20260510043532 68 42 0.0 1.0 0.00 1.85 1.85 99 1012.6
20260510043027 68 41 2.0 3.0 0.00 1.85 1.85 99 1012.5
20260510042522 68 23 1.0 2.0 0.00 1.85 1.85 99 1012.6
20260510042021 68 34 2.0 2.0 0.00 1.85 1.85 99 1012.7
20260510041519 67 81 0.0 0.0 0.00 1.85 1.85 99 1012.1
20260510041016 67 83 0.0 0.0 0.00 1.85 1.85 99 1012.3
20260510040513 67 29 0.0 0.0 0.00 1.85 1.85 99 1011.9
20260510040008 67 47 0.0 0.0 0.00 1.85 1.85 99 1011.8
20260510035506 67 54 0.0 0.0 0.00 1.85 1.85 99 1011.8
20260510035004 67 88 0.0 0.0 0.00 1.85 1.85 99 1011.8
20260510034505 67 90 0.0 0.0 0.00 1.85 1.85 99 1011.8
20260510034000 67 85 0.0 0.0 0.00 1.85 1.85 99 1011.6
20260510033456 67 127 1.0 2.0 0.00 1.85 1.85 99 1011.7
20260510032954 67 154 1.0 1.0 0.00 1.85 1.85 99 1011.6
20260510032451 67 88 0.0 0.0 0.00 1.85 1.85 99 1011.7
20260510031950 67 82 0.0 0.0 0.00 1.85 1.85 99 1011.7
20260510031446 67 95 0.0 0.0 0.00 1.85 1.85 99 1011.7
20260510030942 67 129 0.0 0.0 0.00 1.85 1.85 99 1011.9
20260510030437 67 155 2.0 2.0 0.00 1.85 1.85 99 1011.6
20260510025936 67 152 2.0 2.0 0.00 1.85 1.85 99 1011.6
20260510025432 67 133 1.0 1.0 0.00 1.85 1.85 99 1011.6
20260510024930 67 125 1.0 2.0 0.05 1.85 1.85 99 1011.9
20260510024426 67 95 1.0 2.0 0.12 1.85 1.85 99 1011.9
20260510023922 67 144 0.0 0.0 0.07 1.84 1.84 99 1012.5
20260510023419 67 87 0.0 0.0 0.07 1.84 1.84 99 1012.4
20260510022916 67 30 1.0 2.0 0.00 1.83 1.83 99 1012.7
20260510022415 67 17 0.0 0.0 0.00 1.83 1.83 99 1012.7
20260510021914 67 225 2.0 2.0 0.00 1.83 1.83 99 1012.2
20260510021412 67 113 4.0 6.0 0.00 1.83 1.83 99 1012.0
20260510020909 67 210 5.0 6.0 0.00 1.83 1.83 99 1012.0
20260510020404 67 163 4.0 4.0 0.00 1.83 1.83 99 1011.5
20260510015859 66 86 2.0 3.0 0.00 1.83 1.83 99 1011.5
20260510015355 66 104 0.0 0.0 0.00 1.83 1.83 99 1011.7
20260510014851 66 201 2.0 2.0 0.00 1.83 1.83 99 1011.7
20260510014349 66 91 1.0 2.0 0.00 1.83 1.83 99 1011.9
20260510013844 66 122 2.0 3.0 0.00 1.83 1.83 99 1012.1
20260510013340 66 122 2.0 2.0 0.00 1.83 1.83 99 1012.4
20260510012835 66 152 2.0 3.0 0.00 1.83 1.83 99 1012.2
20260510012335 66 151 4.0 4.0 0.00 1.83 1.83 99 1012.1
20260510011830 66 117 0.0 0.0 0.00 1.83 1.83 99 1012.1
20260510011326 66 109 0.0 0.0 0.00 1.83 1.83 99 1012.4
20260510010822 67 78 0.0 0.0 0.00 1.83 1.83 99 1012.7
20260510010320 67 31 0.0 0.0 0.00 1.83 1.83 99 1012.4
20260510005816 67 60 0.0 1.0 0.00 1.83 1.83 99 1012.7
20260510005313 66 66 0.0 0.0 0.00 1.83 1.83 99 1012.6
20260510004811 67 19 0.0 0.0 0.00 1.83 1.83 99 1012.5
20260510004308 67 71 0.0 0.0 0.00 1.83 1.83 99 1012.4
20260510003805 67 61 0.0 0.0 0.00 1.83 1.83 99 1012.1
20260510003302 67 62 0.0 0.0 0.00 1.83 1.83 99 1012.0
20260510002801 67 56 0.0 0.0 0.00 1.83 1.83 99 1012.1
20260510002258 66 17 0.0 0.0 0.00 1.83 1.83 99 1012.1
20260510001755 67 108 0.0 0.0 0.00 1.83 1.83 99 1011.9
20260510001253 67 74 0.0 0.0 0.00 1.83 1.83 99 1011.7
20260510000748 67 97 0.0 0.0 0.00 1.83 1.83 99 1011.7
20260510000248 67 54 0.0 0.0 0.00 1.83 1.83 99 1011.5
20260509235743 67 103 1.0 1.0 0.00 1.83 1.83 99 1011.1
20260509235240 66 54 0.0 0.0 0.00 1.83 1.83 99 1010.8
20260509234735 66 126 0.0 0.0 0.00 1.83 1.83 99 1010.8
20260509234232 66 146 1.0 2.0 0.00 1.83 1.83 99 1010.5
20260509233731 66 174 2.0 3.0 0.00 1.83 1.83 99 1010.5
20260509233228 66 92 2.0 2.0 0.00 1.83 1.83 99 1010.6
20260509232724 66 154 3.0 4.0 0.00 1.83 1.83 99 1010.1
20260509232221 66 142 3.0 6.0 0.00 1.83 1.83 99 1010.0
20260509231717 66 49 2.0 2.0 0.00 1.83 1.83 99 1010.0
20260509231215 66 115 2.0 3.0 0.05 1.83 1.83 99 1010.2
20260509230712 66 30 0.0 1.0 0.12 1.83 1.83 99 1010.2
20260509230209 66 115 2.0 3.0 0.14 1.82 1.82 99 1010.2
20260509225704 66 102 0.0 1.0 0.12 1.81 1.81 99 1010.4
20260509225200 66 128 6.0 8.0 0.05 1.80 1.80 99 1010.7
20260509224656 66 172 7.0 8.0 0.07 1.79 1.79 99 1011.2
20260509224153 66 128 2.0 4.0 0.19 1.79 1.79 99 1011.1
20260509223650 66 165 3.0 3.0 0.17 1.78 1.78 99 1011.1
20260509223147 66 132 3.0 3.0 0.17 1.76 1.76 99 1011.0
20260509222644 66 123 3.0 4.0 0.19 1.75 1.75 99 1011.1
20260509222139 66 100 0.0 0.0 0.19 1.73 1.73 99 1011.3
20260509221636 66 90 0.0 0.0 0.17 1.72 1.72 99 1011.2
20260509221132 66 75 0.0 1.0 0.12 1.70 1.70 99 1011.3
20260509220628 66 136 2.0 2.0 0.14 1.69 1.69 99 1011.6
20260509220124 66 164 0.0 0.0 0.12 1.68 1.68 99 1011.6
20260509215620 66 259 0.0 0.0 0.17 1.67 1.67 99 1011.6
20260509215117 66 148 0.0 0.0 0.19 1.66 1.66 99 1011.4
20260509214614 66 63 0.0 0.0 0.19 1.64 1.64 99 1011.1
20260509214111 66 63 0.0 0.0 0.28 1.63 1.63 99 1010.9
20260509213607 66 70 0.0 0.0 0.35 1.61 1.61 99 1010.8
20260509213104 66 75 0.0 0.0 0.31 1.58 1.58 99 1010.7
20260509212601 66 121 1.0 1.0 0.24 1.55 1.55 99 1011.0
20260509212058 66 139 2.0 2.0 0.19 1.53 1.53 99 1010.8
20260509211553 66 156 3.0 3.0 0.17 1.52 1.52 99 1011.1
20260509211050 66 158 4.0 4.0 0.19 1.51 1.51 99 1011.1
20260509210547 66 159 2.0 2.0 0.19 1.49 1.49 99 1011.2
20260509210043 66 136 4.0 6.0 0.19 1.47 1.47 99 1011.6
20260509205537 66 161 5.0 6.0 0.24 1.46 1.46 99 1011.8
20260509205033 66 171 1.0 2.0 0.31 1.44 1.44 99 1011.8
20260509204530 66 100 0.0 1.0 0.31 1.42 1.42 99 1011.5
20260509204026 66 112 2.0 3.0 0.17 1.39 1.39 99 1011.9
20260509203522 66 137 0.0 0.0 0.12 1.37 1.37 99 1011.9
20260509203021 67 121 0.0 0.0 0.07 1.36 1.36 99 1011.9
20260509202520 67 122 0.0 0.0 0.00 1.35 1.35 99 1011.8
20260509202017 66 99 0.0 0.0 0.05 1.35 1.35 99 1011.8
20260509201511 67 132 2.0 3.0 0.05 1.35 1.35 99 1011.7
20260509201010 67 115 3.0 3.0 0.00 1.34 1.34 99 1011.4
20260509200509 67 73 0.0 0.0 0.07 1.34 1.34 99 1011.2
20260509200006 67 126 0.0 0.0 0.12 1.34 1.34 99 1010.8
20260509195502 67 82 1.0 1.0 0.19 1.33 1.33 99 1010.8
20260509195001 67 66 0.0 1.0 0.31 1.32 1.32 99 1011.1
20260509194457 67 90 1.0 3.0 0.28 1.30 1.30 99 1011.2
20260509193955 66 83 0.0 1.0 0.24 1.27 1.27 99 1011.5
20260509193454 67 143 5.0 6.0 0.24 1.25 1.25 99 1011.8
20260509192950 67 71 0.0 0.0 0.19 1.23 1.23 99 1011.7
20260509192448 67 131 2.0 4.0 0.19 1.21 1.21 99 1011.9
20260509191942 67 127 1.0 2.0 0.12 1.20 1.20 99 1011.9
20260509191438 67 115 4.0 4.0 0.31 1.19 1.19 99 1012.3
20260509190934 67 221 3.0 4.0 0.54 1.18 1.18 99 1012.2
20260509190431 67 147 8.0 10.0 0.35 1.14 1.14 99 1011.4
20260509185929 67 150 4.0 4.0 0.19 1.09 1.09 99 1012.7
20260509185426 67 309 0.0 1.0 0.19 1.08 1.08 99 1012.5
20260509184923 67 144 9.0 11.0 0.12 1.06 1.06 99 1012.2
20260509184420 67 158 3.0 4.0 0.12 1.05 1.05 99 1012.3
20260509183917 67 94 2.0 4.0 0.05 1.04 1.04 99 1012.1
20260509183411 67 97 3.0 4.0 0.00 1.03 1.03 99 1012.1
20260509182908 67 117 2.0 3.0 0.07 1.03 1.03 99 1011.9
20260509182404 67 140 0.0 1.0 0.07 1.03 1.03 99 1012.0
20260509181902 67 110 2.0 3.0 0.00 1.02 1.02 99 1012.3
20260509181359 67 153 4.0 4.0 0.00 1.02 1.02 99 1012.5
20260509180857 67 165 3.0 3.0 0.00 1.02 1.02 99 1012.3
20260509180352 67 100 0.0 0.0 0.00 1.02 1.02 99 1011.9
20260509175849 67 75 0.0 1.0 0.00 1.02 1.02 99 1011.7
20260509175345 67 38 0.0 1.0 0.00 1.02 1.02 99 1011.7
20260509174841 67 117 1.0 1.0 0.00 1.02 1.02 99 1011.7
20260509174338 67 125 0.0 1.0 0.00 1.02 1.02 99 1011.5
20260509173833 67 122 0.0 1.0 0.05 1.02 1.02 99 1011.5
20260509173329 67 70 2.0 3.0 0.05 1.02 1.02 99 1011.6
20260509172825 67 85 0.0 0.0 0.00 1.01 1.01 99 1011.7
20260509172322 67 80 1.0 3.0 0.00 1.01 1.01 99 1011.8
20260509171818 67 115 4.0 6.0 0.00 1.01 1.01 99 1012.0
20260509171313 67 112 1.0 1.0 0.00 1.01 1.01 99 1011.8
20260509170810 67 79 2.0 3.0 0.00 1.01 1.01 99 1012.0
20260509170306 67 96 0.0 0.0 0.00 1.01 1.01 99 1011.9
20260509165806 67 77 0.0 0.0 0.00 1.01 1.01 99 1011.9
20260509165301 67 62 0.0 1.0 0.00 1.01 1.01 99 1011.9
20260509164757 67 80 0.0 0.0 0.00 1.01 1.01 99 1011.9
20260509164253 67 66 0.0 1.0 0.00 1.01 1.01 99 1011.8
20260509163750 66 92 0.0 0.0 0.00 1.01 1.01 99 1012.1
20260509163246 66 231 5.0 7.0 0.07 1.01 1.01 99 1012.6
20260509162745 66 164 4.0 4.0 0.07 1.01 1.01 99 1012.5
20260509162239 66 144 4.0 4.0 0.07 1.01 1.01 99 1012.4
20260509161735 66 158 2.0 3.0 0.00 1.00 1.00 99 1012.1
20260509161231 66 129 3.0 4.0 0.00 1.00 1.00 99 1012.3
20260509160727 66 124 2.0 3.0 0.00 1.00 1.00 99 1011.9
20260509160224 66 127 2.0 2.0 0.05 1.00 1.00 99 1012.1
20260509155718 66 86 1.0 2.0 0.05 1.00 1.00 99 1011.8
20260509155215 66 72 0.0 1.0 0.00 0.99 0.99 99 1012.1
20260509154711 66 169 3.0 4.0 0.00 0.99 0.99 99 1012.4
20260509154209 66 121 2.0 3.0 0.07 0.99 0.99 99 1012.7
20260509153706 66 121 4.0 4.0 0.19 0.99 0.99 99 1012.5
20260509153202 66 162 2.0 3.0 0.24 0.99 0.99 99 1012.3
20260509152658 66 76 0.0 1.0 0.05 0.96 0.96 99 1012.4
20260509152155 66 114 0.0 1.0 0.00 0.95 0.95 99 1012.3
20260509151651 66 125 0.0 1.0 0.00 0.95 0.95 99 1012.1
20260509151149 66 77 1.0 2.0 0.00 0.95 0.95 99 1012.1
20260509150647 66 72 0.0 1.0 0.00 0.95 0.95 99 1011.9
20260509150145 66 93 0.0 0.0 0.00 0.95 0.95 99 1011.8
20260509145641 65 145 1.0 1.0 0.00 0.95 0.95 99 1012.1
20260509145136 65 123 4.0 4.0 0.00 0.95 0.95 99 1012.1
20260509144633 65 204 4.0 6.0 0.00 0.95 0.95 99 1011.8
20260509144130 65 110 4.0 4.0 0.00 0.95 0.95 99 1011.7
20260509143627 65 73 1.0 1.0 0.07 0.95 0.95 99 1011.4
20260509143125 65 95 0.0 0.0 0.14 0.95 0.95 99 1011.4
20260509142620 65 126 0.0 0.0 0.07 0.94 0.94 99 1011.6
20260509142116 65 119 1.0 2.0 0.05 0.93 0.93 99 1011.6
20260509141612 65 128 3.0 4.0 0.05 0.93 0.93 99 1011.6
20260509141109 65 88 0.0 0.0 0.12 0.92 0.92 99 1011.5
20260509140606 65 87 4.0 6.0 0.24 0.92 0.92 99 1012.0
20260509140104 65 142 5.0 7.0 0.24 0.90 0.90 99 1012.0
20260509135601 65 129 1.0 1.0 0.19 0.88 0.88 99 1011.5
20260509135059 65 89 0.0 0.0 0.31 0.86 0.86 99 1011.4
20260509134555 65 83 1.0 1.0 0.31 0.85 0.85 99 1011.5
20260509134053 65 122 1.0 2.0 0.24 0.81 0.81 99 1012.0
20260509133549 65 89 0.0 0.0 0.40 0.80 0.80 99 1012.1
20260509133047 65 79 0.0 0.0 0.24 0.77 0.77 99 1011.9
20260509132545 65 117 0.0 0.0 0.00 0.73 0.73 99 1012.3
20260509132043 65 74 0.0 0.0 0.24 0.73 0.73 99 1011.9
20260509131539 65 354 0.0 0.0 0.38 0.73 0.73 99 1012.2
20260509131036 65 118 0.0 0.0 0.19 0.69 0.69 99 1011.9
20260509130531 65 73 0.0 0.0 0.12 0.67 0.67 99 1011.5
20260509130029 65 109 0.0 0.0 0.19 0.66 0.66 99 1011.6
20260509125525 65 97 1.0 1.0 0.42 0.66 0.66 99 1011.5
20260509125022 65 83 0.0 0.0 0.31 0.64 0.64 99 1011.8
20260509124518 65 81 0.0 1.0 0.00 0.59 0.59 99 1011.7
20260509124016 65 39 0.0 0.0 0.19 0.59 0.59 99 1011.8
20260509123514 65 41 0.0 0.0 0.78 0.59 0.59 99 1012.0
20260509123009 65 48 0.0 1.0 0.83 0.56 0.56 99 1012.3
20260509122506 65 78 0.0 1.0 0.42 0.46 0.46 99 1012.0
20260509122003 65 46 1.0 3.0 0.42 0.42 0.42 99 1011.9
20260509121500 65 91 2.0 3.0 0.85 0.38 0.38 99 1011.7
20260509120958 65 55 2.0 3.0 1.06 0.37 0.37 99 1012.4
20260509120455 65 348 1.0 2.0 0.61 0.25 0.25 99 1011.8
20260509115953 66 152 4.0 7.0 0.38 0.19 0.19 99 1012.4
20260509115450 67 14 3.0 3.0 0.12 0.15 0.15 98 1011.7
20260509114948 69 57 3.0 6.0 0.00 0.13 0.13 99 1011.4
20260509114446 70 4 2.0 3.0 0.00 0.13 0.13 99 1011.3
20260509113945 70 75 0.0 0.0 0.00 0.13 0.13 99 1010.3
20260509113442 70 41 0.0 0.0 0.00 0.13 0.13 99 1010.2
20260509112939 70 285 0.0 0.0 0.00 0.13 0.13 99 1009.9
20260509112436 70 264 0.0 0.0 0.00 0.13 0.13 99 1009.8
20260509111932 70 223 0.0 0.0 0.00 0.13 0.13 99 1009.7
20260509111430 70 194 1.0 2.0 0.00 0.13 0.13 99 1009.4
20260509110927 70 213 2.0 2.0 0.00 0.13 0.13 99 1009.3
20260509110423 70 122 3.0 3.0 0.00 0.13 0.13 99 1009.1
20260509105921 70 148 4.0 4.0 0.00 0.13 0.13 99 1008.8
20260509105420 70 124 3.0 4.0 0.00 0.13 0.13 99 1008.9
20260509104916 70 134 4.0 4.0 0.00 0.13 0.13 99 1008.8
20260509104413 70 108 2.0 3.0 0.00 0.13 0.13 99 1008.8
20260509103911 70 110 3.0 3.0 0.00 0.13 0.13 99 1008.9
20260509103408 70 137 3.0 4.0 0.00 0.13 0.13 99 1009.0
20260509102906 70 66 3.0 4.0 0.00 0.13 0.13 99 1009.0
20260509102403 70 159 4.0 4.0 0.00 0.13 0.13 99 1009.2
20260509101859 69 153 2.0 3.0 0.00 0.13 0.13 99 1009.2
20260509101355 69 108 2.0 2.0 0.00 0.13 0.13 99 1009.4
20260509100853 69 98 3.0 4.0 0.00 0.13 0.13 99 1009.1
20260509100350 69 145 2.0 2.0 0.00 0.13 0.13 99 1008.8
20260509095847 69 142 2.0 3.0 0.00 0.13 0.13 99 1008.9
20260509095344 69 138 2.0 2.0 0.00 0.13 0.13 99 1008.7
20260509094841 69 172 3.0 3.0 0.00 0.13 0.13 99 1008.6
20260509094338 69 125 2.0 2.0 0.00 0.13 0.13 99 1008.5
20260509093835 69 165 3.0 3.0 0.00 0.13 0.13 99 1008.5
20260509093332 69 131 6.0 7.0 0.00 0.13 0.13 99 1008.2
20260509092831 69 161 5.0 6.0 0.00 0.13 0.13 99 1008.4
20260509092328 69 173 3.0 4.0 0.00 0.13 0.13 99 1008.5
20260509091826 69 117 5.0 7.0 0.00 0.13 0.13 99 1008.5
20260509091323 69 128 0.0 1.0 0.00 0.13 0.13 99 1008.7
20260509090820 69 113 3.0 4.0 0.00 0.13 0.13 99 1008.5
20260509090317 69 160 2.0 2.0 0.00 0.13 0.13 99 1008.5
20260509085814 69 76 2.0 3.0 0.00 0.13 0.13 99 1008.8
20260509085312 69 99 4.0 4.0 0.00 0.13 0.13 99 1009.1
20260509084808 69 133 3.0 4.0 0.00 0.13 0.13 99 1009.3
20260509084305 69 163 5.0 6.0 0.00 0.13 0.13 99 1009.3
20260509083803 69 120 3.0 4.0 0.00 0.13 0.13 99 1009.3
20260509083259 69 139 2.0 3.0 0.00 0.13 0.13 99 1009.5
20260509082756 69 93 4.0 6.0 0.00 0.13 0.13 99 1009.5
20260509082253 69 113 1.0 2.0 0.00 0.13 0.13 99 1009.5
20260509081750 69 130 2.0 3.0 0.00 0.13 0.13 99 1009.6